| time (UTC) | temp F | wind direction | speed MPH | gust MPH | rain 1hr in | rain 24hr in | rain mn in | humidity % | barometer mb |
| 20260505164425 | 88 | 0.0 | 0.0 | 0.00 | 0.00 | 0.00 | 87 | 1010.9 | |
| 20260505163922 | 88 | 0.0 | 0.0 | 0.00 | 0.00 | 0.00 | 86 | 1011.3 | |
| 20260505163421 | 88 | 0.0 | 0.0 | 0.00 | 0.00 | 0.00 | 86 | 1011.3 | |
| 20260505162920 | 88 | 0.0 | 0.0 | 0.00 | 0.00 | 0.00 | 86 | 1011.3 | |
| 20260505162415 | 88 | 0.0 | 0.0 | 0.00 | 0.00 | 0.00 | 86 | 1011.3 | |
| 20260505161912 | 88 | 0.0 | 0.0 | 0.00 | 0.00 | 0.00 | 86 | 1011.3 | |
| 20260505161409 | 88 | 0.0 | 0.0 | 0.00 | 0.00 | 0.00 | 86 | 1011.3 | |
| 20260505160907 | 89 | 0.0 | 0.0 | 0.00 | 0.00 | 0.00 | 86 | 1011.3 | |
| 20260505160405 | 89 | 0.0 | 0.0 | 0.00 | 0.00 | 0.00 | 86 | 1011.3 | |
| 20260505153343 | 89 | 0.0 | 0.0 | 0.00 | 0.00 | 0.00 | 84 | 1011.6 | |
| 20260505152840 | 89 | 0.0 | 0.0 | 0.00 | 0.00 | 0.00 | 84 | 1011.9 | |
| 20260505152337 | 89 | 0.0 | 0.0 | 0.00 | 0.00 | 0.00 | 84 | 1011.6 | |
| 20260505151832 | 89 | 0.0 | 0.0 | 0.00 | 0.00 | 0.00 | 84 | 1011.6 | |
| 20260505151328 | 89 | 0.0 | 0.0 | 0.00 | 0.00 | 0.00 | 84 | 1011.6 | |
| 20260505150825 | 89 | 0.0 | 0.0 | 0.00 | 0.00 | 0.00 | 84 | 1011.6 | |
| 20260505150322 | 89 | 0.0 | 0.0 | 0.00 | 0.00 | 0.00 | 84 | 1011.6 | |
| 20260505140247 | 89 | 0.0 | 0.0 | 0.00 | 0.00 | 0.00 | 83 | 1011.6 | |
| 20260505130211 | 89 | 0.0 | 0.0 | 0.00 | 0.00 | 0.00 | 83 | 1011.3 | |
| 20260505124701 | 89 | 0.0 | 0.0 | 0.00 | 0.00 | 0.00 | 82 | 1011.3 | |
| 20260505124157 | 90 | 0.0 | 0.0 | 0.00 | 0.00 | 0.00 | 82 | 1011.3 | |
| 20260505123653 | 90 | 0.0 | 0.0 | 0.00 | 0.00 | 0.00 | 82 | 1011.3 | |
| 20260505123150 | 90 | 0.0 | 0.0 | 0.00 | 0.00 | 0.00 | 82 | 1011.3 | |
| 20260505122647 | 90 | 0.0 | 0.0 | 0.00 | 0.00 | 0.00 | 82 | 1011.3 | |
| 20260505122144 | 90 | 0.0 | 0.0 | 0.00 | 0.00 | 0.00 | 82 | 1011.3 | |
| 20260505121641 | 90 | 0.0 | 0.0 | 0.00 | 0.00 | 0.00 | 82 | 1011.3 | |
| 20260505121137 | 90 | 0.0 | 0.0 | 0.00 | 0.00 | 0.00 | 82 | 1011.3 | |
| 20260505120633 | 90 | 0.0 | 0.0 | 0.00 | 0.00 | 0.00 | 82 | 1010.9 | |
| 20260505120129 | 90 | 0.0 | 0.0 | 0.00 | 0.00 | 0.00 | 82 | 1010.9 | |
| 20260505115624 | 90 | 0.0 | 0.0 | 0.00 | 0.00 | 0.00 | 83 | 1010.9 | |
| 20260505115121 | 90 | 0.0 | 0.0 | 0.00 | 0.00 | 0.00 | 83 | 1010.6 | |
| 20260505114618 | 90 | 0.0 | 0.0 | 0.00 | 0.00 | 0.00 | 82 | 1010.6 | |
| 20260505114115 | 90 | 0.0 | 0.0 | 0.00 | 0.00 | 0.00 | 82 | 1010.2 | |
| 20260505113611 | 90 | 0.0 | 0.0 | 0.00 | 0.00 | 0.00 | 82 | 1010.2 | |
| 20260505113108 | 90 | 0.0 | 0.0 | 0.00 | 0.00 | 0.00 | 82 | 1010.2 | |
| 20260505112604 | 90 | 0.0 | 0.0 | 0.00 | 0.00 | 0.00 | 81 | 1010.2 | |
| 20260505112102 | 90 | 0.0 | 0.0 | 0.00 | 0.00 | 0.00 | 81 | 1010.2 | |
| 20260505111556 | 90 | 0.0 | 0.0 | 0.00 | 0.00 | 0.00 | 81 | 1009.9 | |
| 20260505111052 | 90 | 0.0 | 0.0 | 0.00 | 0.00 | 0.00 | 81 | 1010.2 | |
| 20260505110549 | 90 | 0.0 | 0.0 | 0.00 | 0.00 | 0.00 | 81 | 1010.2 | |
| 20260505102021 | 91 | 0.0 | 0.0 | 0.00 | 0.00 | 0.00 | 80 | 1009.6 | |
| 20260505101520 | 91 | 0.0 | 0.0 | 0.00 | 0.00 | 0.00 | 80 | 1009.9 | |
| 20260505101016 | 91 | 0.0 | 0.0 | 0.00 | 0.00 | 0.00 | 80 | 1009.9 | |
| 20260505100513 | 91 | 0.0 | 0.0 | 0.00 | 0.00 | 0.00 | 80 | 1009.9 | |
| 20260505100010 | 91 | 0.0 | 0.0 | 0.00 | 0.00 | 0.00 | 80 | 1009.6 | |
| 20260505095506 | 91 | 0.0 | 0.0 | 0.00 | 0.00 | 0.00 | 80 | 1009.6 | |
| 20260505095002 | 91 | 0.0 | 0.0 | 0.00 | 0.00 | 0.00 | 80 | 1009.6 | |
| 20260505094459 | 92 | 0.0 | 0.0 | 0.00 | 0.00 | 0.00 | 81 | 1009.6 | |
| 20260505093955 | 92 | 0.0 | 0.0 | 0.00 | 0.00 | 0.00 | 81 | 1009.6 | |
| 20260505093452 | 92 | 0.0 | 0.0 | 0.00 | 0.00 | 0.00 | 81 | 1009.2 | |
| 20260505092949 | 92 | 0.0 | 0.0 | 0.00 | 0.00 | 0.00 | 81 | 1009.2 | |
| 20260505092446 | 92 | 0.0 | 0.0 | 0.00 | 0.00 | 0.00 | 81 | 1009.2 | |
| 20260505091944 | 92 | 0.0 | 0.0 | 0.00 | 0.00 | 0.00 | 82 | 1008.9 | |
| 20260505091441 | 92 | 0.0 | 0.0 | 0.00 | 0.00 | 0.00 | 82 | 1008.9 | |
| 20260505090939 | 92 | 0.0 | 0.0 | 0.00 | 0.00 | 0.00 | 82 | 1009.2 | |
| 20260505090437 | 92 | 0.0 | 0.0 | 0.00 | 0.00 | 0.00 | 82 | 1009.2 | |
| 20260505085934 | 92 | 0.0 | 0.0 | 0.00 | 0.00 | 0.00 | 82 | 1008.9 | |
| 20260505085432 | 92 | 0.0 | 0.0 | 0.00 | 0.00 | 0.00 | 82 | 1008.9 | |
| 20260505084930 | 92 | 0.0 | 0.0 | 0.00 | 0.00 | 0.00 | 82 | 1009.2 | |
| 20260505084428 | 92 | 0.0 | 0.0 | 0.00 | 0.00 | 0.00 | 82 | 1008.9 | |
| 20260505083926 | 92 | 0.0 | 0.0 | 0.00 | 0.00 | 0.00 | 80 | 1008.9 | |
| 20260505083423 | 92 | 0.0 | 0.0 | 0.00 | 0.00 | 0.00 | 80 | 1008.9 | |
| 20260505082919 | 93 | 0.0 | 0.0 | 0.00 | 0.00 | 0.00 | 79 | 1008.9 | |
| 20260505082415 | 93 | 0.0 | 0.0 | 0.00 | 0.00 | 0.00 | 79 | 1009.2 | |
| 20260505081912 | 93 | 0.0 | 0.0 | 0.00 | 0.00 | 0.00 | 79 | 1008.9 | |
| 20260505081409 | 93 | 0.0 | 0.0 | 0.00 | 0.00 | 0.00 | 76 | 1008.9 | |
| 20260505080905 | 94 | 0.0 | 0.0 | 0.00 | 0.00 | 0.00 | 75 | 1008.9 | |
| 20260505080401 | 94 | 0.0 | 0.0 | 0.00 | 0.00 | 0.00 | 73 | 1008.9 | |
| 20260505075857 | 94 | 0.0 | 0.0 | 0.00 | 0.00 | 0.00 | 73 | 1008.9 | |
| 20260505075354 | 95 | 0.0 | 0.0 | 0.00 | 0.00 | 0.00 | 72 | 1008.6 | |
| 20260505074851 | 95 | 0.0 | 0.0 | 0.00 | 0.00 | 0.00 | 72 | 1008.9 | |
| 20260505074348 | 95 | 0.0 | 0.0 | 0.00 | 0.00 | 0.00 | 73 | 1008.6 | |
| 20260505073846 | 95 | 0.0 | 0.0 | 0.00 | 0.00 | 0.00 | 73 | 1008.6 | |
| 20260505073344 | 95 | 0.0 | 0.0 | 0.00 | 0.00 | 0.00 | 73 | 1008.6 | |
| 20260505072840 | 96 | 0.0 | 0.0 | 0.00 | 0.00 | 0.00 | 73 | 1008.6 | |
| 20260505072336 | 96 | 0.0 | 0.0 | 0.00 | 0.00 | 0.00 | 72 | 1008.6 | |
| 20260505071832 | 96 | 0.0 | 0.0 | 0.00 | 0.00 | 0.00 | 71 | 1008.6 | |
| 20260505071329 | 95 | 0.0 | 0.0 | 0.00 | 0.00 | 0.00 | 73 | 1008.6 | |
| 20260505070827 | 95 | 0.0 | 0.0 | 0.00 | 0.00 | 0.00 | 74 | 1008.9 | |
| 20260505070324 | 94 | 0.0 | 0.0 | 0.00 | 0.00 | 0.00 | 75 | 1008.9 | |
| 20260505065819 | 93 | 0.0 | 0.0 | 0.00 | 0.00 | 0.00 | 75 | 1008.9 | |
| 20260505065316 | 94 | 0.0 | 0.0 | 0.00 | 0.00 | 0.00 | 75 | 1009.2 | |
| 20260505064813 | 94 | 0.0 | 0.0 | 0.00 | 0.00 | 0.00 | 76 | 1008.9 | |
| 20260505064310 | 93 | 0.0 | 0.0 | 0.00 | 0.00 | 0.00 | 77 | 1008.9 | |
| 20260505063808 | 93 | 0.0 | 0.0 | 0.00 | 0.00 | 0.00 | 77 | 1009.2 | |
| 20260505063304 | 92 | 0.0 | 0.0 | 0.00 | 0.00 | 0.00 | 77 | 1009.2 | |
| 20260505062800 | 93 | 0.0 | 0.0 | 0.00 | 0.00 | 0.00 | 77 | 1009.2 | |
| 20260505062258 | 92 | 0.0 | 0.0 | 0.00 | 0.00 | 0.00 | 77 | 1009.2 | |
| 20260505061755 | 92 | 0.0 | 0.0 | 0.00 | 0.00 | 0.00 | 77 | 1009.2 | |
| 20260505061253 | 92 | 0.0 | 0.0 | 0.00 | 0.00 | 0.00 | 78 | 1009.2 | |
| 20260505060750 | 92 | 0.0 | 0.0 | 0.00 | 0.00 | 0.00 | 78 | 1009.2 | |
| 20260505060247 | 93 | 0.0 | 0.0 | 0.00 | 0.00 | 0.00 | 77 | 1009.6 | |
| 20260505055742 | 93 | 0.0 | 0.0 | 0.00 | 0.00 | 0.00 | 78 | 1009.6 | |
| 20260505055238 | 93 | 0.0 | 0.0 | 0.00 | 0.00 | 0.00 | 77 | 1009.6 | |
| 20260505054736 | 93 | 0.0 | 0.0 | 0.00 | 0.00 | 0.00 | 78 | 1009.6 | |
| 20260505054234 | 93 | 0.0 | 0.0 | 0.00 | 0.00 | 0.00 | 78 | 1009.6 | |
| 20260505053732 | 92 | 0.0 | 0.0 | 0.00 | 0.00 | 0.00 | 79 | 1009.6 | |
| 20260505053228 | 92 | 0.0 | 0.0 | 0.00 | 0.00 | 0.00 | 79 | 1009.6 | |
| 20260505052725 | 91 | 0.0 | 0.0 | 0.00 | 0.00 | 0.00 | 81 | 1009.6 | |
| 20260505052222 | 91 | 0.0 | 0.0 | 0.00 | 0.00 | 0.00 | 82 | 1009.9 | |
| 20260505051719 | 91 | 0.0 | 0.0 | 0.00 | 0.00 | 0.00 | 82 | 1009.9 | |
| 20260505051217 | 91 | 0.0 | 0.0 | 0.00 | 0.00 | 0.00 | 81 | 1009.9 | |
| 20260505050715 | 91 | 0.0 | 0.0 | 0.00 | 0.00 | 0.00 | 83 | 1010.2 | |
| 20260505050213 | 90 | 0.0 | 0.0 | 0.00 | 0.00 | 0.00 | 84 | 1009.9 | |
| 20260505041642 | 89 | 0.0 | 0.0 | 0.00 | 0.00 | 0.00 | 85 | 1010.9 | |
| 20260505041140 | 89 | 0.0 | 0.0 | 0.00 | 0.00 | 0.00 | 85 | 1010.6 | |
| 20260505040637 | 89 | 0.0 | 0.0 | 0.00 | 0.00 | 0.00 | 85 | 1010.6 | |
| 20260505040134 | 89 | 0.0 | 0.0 | 0.00 | 0.00 | 0.00 | 85 | 1010.6 | |
| 20260505035630 | 89 | 0.0 | 0.0 | 0.00 | 0.00 | 0.00 | 85 | 1010.9 | |
| 20260505035126 | 89 | 0.0 | 0.0 | 0.00 | 0.00 | 0.00 | 85 | 1010.9 | |
| 20260505034623 | 89 | 0.0 | 0.0 | 0.00 | 0.00 | 0.00 | 86 | 1011.3 | |
| 20260505034120 | 89 | 0.0 | 0.0 | 0.00 | 0.00 | 0.00 | 86 | 1010.9 | |
| 20260505033617 | 89 | 0.0 | 0.0 | 0.00 | 0.00 | 0.00 | 86 | 1011.3 | |
| 20260505033116 | 89 | 0.0 | 0.0 | 0.00 | 0.00 | 0.00 | 87 | 1011.3 | |
| 20260505032613 | 89 | 0.0 | 0.0 | 0.00 | 0.00 | 0.00 | 87 | 1011.3 | |
| 20260505032109 | 88 | 0.0 | 0.0 | 0.00 | 0.00 | 0.00 | 87 | 1011.3 | |
| 20260505031607 | 88 | 0.0 | 0.0 | 0.00 | 0.00 | 0.00 | 87 | 1011.3 | |
| 20260505031102 | 88 | 0.0 | 0.0 | 0.00 | 0.00 | 0.00 | 87 | 1011.3 | |
| 20260505030559 | 88 | 0.0 | 0.0 | 0.00 | 0.00 | 0.00 | 87 | 1011.6 | |
| 20260505030050 | 88 | 0.0 | 0.0 | 0.00 | 0.00 | 0.00 | 88 | 1011.3 | |
| 20260505025546 | 88 | 0.0 | 0.0 | 0.00 | 0.00 | 0.00 | 87 | 1011.3 | |
| 20260505025045 | 88 | 0.0 | 0.0 | 0.00 | 0.00 | 0.00 | 88 | 1011.3 | |
| 20260505024542 | 88 | 0.0 | 0.0 | 0.00 | 0.00 | 0.00 | 88 | 1011.3 | |
| 20260505024039 | 88 | 0.0 | 0.0 | 0.00 | 0.00 | 0.00 | 88 | 1011.6 | |
| 20260505023536 | 88 | 0.0 | 0.0 | 0.00 | 0.00 | 0.00 | 87 | 1011.6 | |
| 20260505023033 | 88 | 0.0 | 0.0 | 0.00 | 0.00 | 0.00 | 88 | 1011.6 | |
| 20260505022531 | 88 | 0.0 | 0.0 | 0.00 | 0.00 | 0.00 | 88 | 1011.9 | |
| 20260505022028 | 88 | 0.0 | 0.0 | 0.00 | 0.00 | 0.00 | 88 | 1011.9 | |
| 20260505021524 | 87 | 0.0 | 0.0 | 0.00 | 0.00 | 0.00 | 88 | 1011.9 | |
| 20260505021020 | 87 | 0.0 | 0.0 | 0.00 | 0.00 | 0.00 | 89 | 1011.9 | |
| 20260505020515 | 87 | 0.0 | 0.0 | 0.00 | 0.00 | 0.00 | 89 | 1011.9 | |
| 20260505020013 | 87 | 0.0 | 0.0 | 0.00 | 0.00 | 0.00 | 89 | 1011.9 | |
| 20260505015509 | 87 | 0.0 | 0.0 | 0.00 | 0.00 | 0.00 | 88 | 1011.9 | |
| 20260505015006 | 87 | 0.0 | 0.0 | 0.00 | 0.00 | 0.00 | 88 | 1012.3 | |
| 20260505014503 | 87 | 0.0 | 0.0 | 0.00 | 0.00 | 0.00 | 88 | 1011.9 | |
| 20260505014001 | 88 | 0.0 | 0.0 | 0.00 | 0.00 | 0.00 | 87 | 1012.3 | |
| 20260505013457 | 88 | 0.0 | 0.0 | 0.00 | 0.00 | 0.00 | 86 | 1011.9 | |
| 20260505012954 | 88 | 0.0 | 0.0 | 0.00 | 0.00 | 0.00 | 85 | 1012.3 | |
| 20260505012453 | 88 | 0.0 | 0.0 | 0.00 | 0.00 | 0.00 | 84 | 1012.3 | |
| 20260505011949 | 89 | 0.0 | 0.0 | 0.00 | 0.00 | 0.00 | 83 | 1012.3 | |
| 20260505011445 | 89 | 0.0 | 0.0 | 0.00 | 0.00 | 0.00 | 81 | 1011.9 | |
| 20260505010942 | 89 | 0.0 | 0.0 | 0.00 | 0.00 | 0.00 | 80 | 1011.9 | |
| 20260505010438 | 89 | 0.0 | 0.0 | 0.00 | 0.00 | 0.00 | 80 | 1011.9 | |
| 20260505005934 | 89 | 0.0 | 0.0 | 0.00 | 0.00 | 0.00 | 80 | 1011.9 | |
| 20260505005431 | 89 | 0.0 | 0.0 | 0.00 | 0.00 | 0.00 | 78 | 1012.3 | |
| 20260505004929 | 89 | 0.0 | 0.0 | 0.00 | 0.00 | 0.00 | 76 | 1011.9 | |
| 20260505004425 | 89 | 0.0 | 0.0 | 0.00 | 0.00 | 0.00 | 77 | 1012.3 | |
| 20260505003922 | 89 | 0.0 | 0.0 | 0.00 | 0.00 | 0.00 | 79 | 1012.3 | |
| 20260505003419 | 89 | 0.0 | 0.0 | 0.00 | 0.00 | 0.00 | 76 | 1012.3 | |
| 20260505002915 | 89 | 0.0 | 0.0 | 0.00 | 0.00 | 0.00 | 76 | 1011.9 | |
| 20260505002412 | 89 | 0.0 | 0.0 | 0.00 | 0.00 | 0.00 | 77 | 1012.3 | |
| 20260505001910 | 89 | 0.0 | 0.0 | 0.00 | 0.00 | 0.00 | 76 | 1011.9 | |
| 20260505001408 | 89 | 0.0 | 0.0 | 0.00 | 0.00 | 0.00 | 77 | 1011.9 | |
| 20260505000905 | 89 | 0.0 | 0.0 | 0.00 | 0.00 | 0.00 | 77 | 1012.3 | |
| 20260505000403 | 89 | 0.0 | 0.0 | 0.00 | 0.00 | 0.00 | 77 | 1012.3 | |
| 20260504235859 | 89 | 0.0 | 0.0 | 0.00 | 0.00 | 0.00 | 77 | 1011.9 | |
| 20260504235356 | 89 | 0.0 | 0.0 | 0.00 | 0.00 | 0.00 | 77 | 1012.3 | |
| 20260504234852 | 89 | 0.0 | 0.0 | 0.00 | 0.00 | 0.00 | 77 | 1012.3 | |
| 20260504234350 | 88 | 0.0 | 0.0 | 0.00 | 0.00 | 0.00 | 77 | 1012.3 | |
| 20260504233846 | 88 | 0.0 | 0.0 | 0.00 | 0.00 | 0.00 | 78 | 1012.3 | |
| 20260504233342 | 88 | 0.0 | 0.0 | 0.00 | 0.00 | 0.00 | 78 | 1012.3 | |
| 20260504232839 | 88 | 0.0 | 0.0 | 0.00 | 0.00 | 0.00 | 78 | 1011.9 | |
| 20260504232336 | 88 | 0.0 | 0.0 | 0.00 | 0.00 | 0.00 | 78 | 1012.3 | |
| 20260504231833 | 88 | 0.0 | 0.0 | 0.00 | 0.00 | 0.00 | 79 | 1012.3 | |
| 20260504231329 | 88 | 0.0 | 0.0 | 0.00 | 0.00 | 0.00 | 79 | 1012.3 | |
| 20260504230825 | 87 | 0.0 | 0.0 | 0.00 | 0.00 | 0.00 | 79 | 1011.9 | |
| 20260504230323 | 87 | 0.0 | 0.0 | 0.00 | 0.00 | 0.00 | 79 | 1011.9 | |
| 20260504225822 | 87 | 0.0 | 0.0 | 0.00 | 0.00 | 0.00 | 79 | 1011.9 | |
| 20260504225318 | 87 | 0.0 | 0.0 | 0.00 | 0.00 | 0.00 | 80 | 1011.9 | |
| 20260504224815 | 87 | 0.0 | 0.0 | 0.00 | 0.00 | 0.00 | 80 | 1011.9 | |
| 20260504224312 | 87 | 0.0 | 0.0 | 0.00 | 0.00 | 0.00 | 80 | 1011.9 | |
| 20260504223809 | 87 | 0.0 | 0.0 | 0.00 | 0.00 | 0.00 | 81 | 1011.6 | |
| 20260504223304 | 87 | 0.0 | 0.0 | 0.00 | 0.00 | 0.00 | 81 | 1011.9 | |
| 20260504222801 | 87 | 0.0 | 0.0 | 0.00 | 0.00 | 0.00 | 81 | 1011.9 | |
| 20260504222258 | 87 | 0.0 | 0.0 | 0.00 | 0.00 | 0.00 | 81 | 1011.6 | |
| 20260504221756 | 87 | 0.0 | 0.0 | 0.00 | 0.00 | 0.00 | 81 | 1011.6 | |
| 20260504221253 | 86 | 0.0 | 0.0 | 0.00 | 0.00 | 0.00 | 81 | 1011.6 | |
| 20260504220749 | 86 | 0.0 | 0.0 | 0.00 | 0.00 | 0.00 | 81 | 1011.6 | |
| 20260504220247 | 86 | 0.0 | 0.0 | 0.00 | 0.00 | 0.00 | 81 | 1011.6 | |
| 20260504215744 | 86 | 0.0 | 0.0 | 0.00 | 0.00 | 0.00 | 81 | 1011.9 | |
| 20260504215240 | 86 | 0.0 | 0.0 | 0.00 | 0.00 | 0.00 | 81 | 1011.6 | |
| 20260504214736 | 86 | 0.0 | 0.0 | 0.00 | 0.00 | 0.00 | 81 | 1011.6 | |
| 20260504214233 | 86 | 0.0 | 0.0 | 0.00 | 0.00 | 0.00 | 81 | 1011.6 | |
| 20260504213730 | 86 | 0.0 | 0.0 | 0.00 | 0.00 | 0.00 | 81 | 1011.6 | |
| 20260504213226 | 86 | 0.0 | 0.0 | 0.00 | 0.00 | 0.00 | 81 | 1011.6 | |
| 20260504212723 | 86 | 0.0 | 0.0 | 0.00 | 0.00 | 0.00 | 81 | 1011.6 | |
| 20260504212219 | 86 | 0.0 | 0.0 | 0.00 | 0.00 | 0.00 | 80 | 1011.6 | |
| 20260504211717 | 87 | 0.0 | 0.0 | 0.00 | 0.00 | 0.00 | 80 | 1011.3 | |
| 20260504211213 | 87 | 0.0 | 0.0 | 0.00 | 0.00 | 0.00 | 80 | 1011.6 | |
| 20260504210711 | 87 | 0.0 | 0.0 | 0.00 | 0.00 | 0.00 | 79 | 1011.3 | |
| 20260504210208 | 87 | 0.0 | 0.0 | 0.00 | 0.00 | 0.00 | 79 | 1011.3 | |
| 20260504205705 | 87 | 0.0 | 0.0 | 0.00 | 0.00 | 0.00 | 79 | 1011.3 | |
| 20260504205202 | 87 | 0.0 | 0.0 | 0.00 | 0.00 | 0.00 | 79 | 1011.3 | |
| 20260504204700 | 87 | 0.0 | 0.0 | 0.00 | 0.00 | 0.00 | 79 | 1011.3 | |
| 20260504204159 | 87 | 0.0 | 0.0 | 0.00 | 0.00 | 0.00 | 79 | 1011.3 | |
| 20260504203657 | 87 | 0.0 | 0.0 | 0.00 | 0.00 | 0.00 | 79 | 1010.9 | |
| 20260504203155 | 87 | 0.0 | 0.0 | 0.00 | 0.00 | 0.00 | 80 | 1010.9 | |
| 20260504202654 | 86 | 0.0 | 0.0 | 0.00 | 0.00 | 0.00 | 81 | 1011.3 | |
| 20260504202152 | 86 | 0.0 | 0.0 | 0.00 | 0.00 | 0.00 | 81 | 1010.9 | |
| 20260504201649 | 86 | 0.0 | 0.0 | 0.00 | 0.00 | 0.00 | 81 | 1010.9 | |
| 20260504201146 | 86 | 0.0 | 0.0 | 0.00 | 0.00 | 0.00 | 81 | 1010.6 | |
| 20260504200643 | 86 | 0.0 | 0.0 | 0.00 | 0.00 | 0.00 | 81 | 1010.9 | |
| 20260504200140 | 87 | 0.0 | 0.0 | 0.00 | 0.00 | 0.00 | 80 | 1010.6 | |
| 20260504195636 | 87 | 0.0 | 0.0 | 0.00 | 0.00 | 0.00 | 80 | 1010.9 | |
| 20260504195132 | 87 | 0.0 | 0.0 | 0.00 | 0.00 | 0.00 | 80 | 1010.9 | |
| 20260504194629 | 87 | 0.0 | 0.0 | 0.00 | 0.00 | 0.00 | 80 | 1010.9 | |
| 20260504194125 | 87 | 0.0 | 0.0 | 0.00 | 0.00 | 0.00 | 80 | 1010.9 | |
| 20260504193621 | 87 | 0.0 | 0.0 | 0.00 | 0.00 | 0.00 | 80 | 1010.9 | |
| 20260504193120 | 87 | 0.0 | 0.0 | 0.00 | 0.00 | 0.00 | 80 | 1010.9 | |
| 20260504192618 | 87 | 0.0 | 0.0 | 0.00 | 0.00 | 0.00 | 80 | 1010.9 | |
| 20260504192115 | 87 | 0.0 | 0.0 | 0.00 | 0.00 | 0.00 | 79 | 1010.9 | |
| 20260504191614 | 87 | 0.0 | 0.0 | 0.00 | 0.00 | 0.00 | 79 | 1010.9 | |
| 20260504191109 | 87 | 0.0 | 0.0 | 0.00 | 0.00 | 0.00 | 79 | 1011.3 | |
| 20260504190606 | 87 | 0.0 | 0.0 | 0.00 | 0.00 | 0.00 | 79 | 1010.9 | |
| 20260504185559 | 87 | 0.0 | 0.0 | 0.00 | 0.00 | 0.00 | 79 | 1011.3 | |
| 20260504185055 | 87 | 0.0 | 0.0 | 0.00 | 0.00 | 0.00 | 79 | 1010.9 | |
| 20260504184551 | 87 | 0.0 | 0.0 | 0.00 | 0.00 | 0.00 | 79 | 1010.9 | |
| 20260504184046 | 87 | 0.0 | 0.0 | 0.00 | 0.00 | 0.00 | 79 | 1010.9 | |
| 20260504183544 | 87 | 0.0 | 0.0 | 0.00 | 0.00 | 0.00 | 79 | 1011.3 | |
| 20260504183042 | 87 | 0.0 | 0.0 | 0.00 | 0.00 | 0.00 | 78 | 1011.3 | |
| 20260504182539 | 87 | 0.0 | 0.0 | 0.00 | 0.00 | 0.00 | 79 | 1010.9 | |
| 20260504182036 | 87 | 0.0 | 0.0 | 0.00 | 0.00 | 0.00 | 78 | 1011.3 | |
| 20260504181533 | 87 | 0.0 | 0.0 | 0.00 | 0.00 | 0.00 | 78 | 1011.3 | |
| 20260504181031 | 87 | 0.0 | 0.0 | 0.00 | 0.00 | 0.00 | 78 | 1011.3 | |
| 20260504180530 | 87 | 0.0 | 0.0 | 0.00 | 0.00 | 0.00 | 78 | 1011.3 | |
| 20260504180028 | 87 | 0.0 | 0.0 | 0.00 | 0.00 | 0.00 | 78 | 1011.3 | |
| 20260504175525 | 87 | 0.0 | 0.0 | 0.00 | 0.00 | 0.00 | 77 | 1011.3 | |
| 20260504175022 | 87 | 0.0 | 0.0 | 0.00 | 0.00 | 0.00 | 77 | 1011.6 | |
| 20260504174520 | 88 | 0.0 | 0.0 | 0.00 | 0.00 | 0.00 | 77 | 1011.3 | |
| 20260504174017 | 88 | 0.0 | 0.0 | 0.00 | 0.00 | 0.00 | 77 | 1011.3 | |
| 20260504173513 | 88 | 0.0 | 0.0 | 0.00 | 0.00 | 0.00 | 77 | 1011.3 | |
| 20260504173011 | 88 | 0.0 | 0.0 | 0.00 | 0.00 | 0.00 | 77 | 1011.6 | |
| 20260504172507 | 88 | 0.0 | 0.0 | 0.00 | 0.00 | 0.00 | 77 | 1011.9 | |
| 20260504172003 | 88 | 0.0 | 0.0 | 0.00 | 0.00 | 0.00 | 77 | 1011.6 | |
| 20260504171500 | 88 | 0.0 | 0.0 | 0.00 | 0.00 | 0.00 | 77 | 1011.9 | |
| 20260504170957 | 88 | 0.0 | 0.0 | 0.00 | 0.00 | 0.00 | 76 | 1011.6 | |
| 20260504170453 | 88 | 0.0 | 0.0 | 0.00 | 0.00 | 0.00 | 76 | 1011.6 |